QPF
0.00 0.00 0.00 0.00 0.00 0.00 0.00 0.00 0.00 0.01 0.01 0.01 0.01 0.02 0.02 0.01 0.02 0.05 0.04 0.02 0.01 0.00 0.00 0.00 0.00 0.00 0.00 0.00 0.00 0.00 0.00 0.00 0.00 0.00 0.00 0.00 0.00 0.00 0.00 0.00 0.00 0.00 0.00 0.00 0.00 0.00 0.00 0.00 0.00
0.00 0.00 0.00 0.00 0.00 0.00 0.00 0.00 0.01 0.01 0.00 0.00 0.01 0.02 0.01 0.01 0.01 0.03 0.03 0.02 0.01 0.00 0.00 0.00 0.00 0.00 0.00 0.00 0.00 0.00 0.00 0.00 0.00 0.00 0.00 0.00 0.00 0.00 0.00 0.00 0.00 0.00 0.00 0.00 0.00 0.00 0.00 0.00 0.00
0.00 0.00 0.00 0.00 0.00 0.00 0.00 0.01 0.01 0.01 0.01 0.01 0.01 0.01 0.02 0.04 0.02 0.03 0.02 0.01 0.01 0.00 0.00 0.00 0.00 0.00 0.00 0.00 0.00 0.01 0.01 0.00 0.00 0.00 0.00 0.00 0.00 0.00 0.00 0.00 0.00 0.00 0.00 0.00 0.00 0.00 0.00 0.00 0.00
0.00 0.00 0.00 0.00 0.00 0.00 0.00 0.01 0.01 0.01 0.01 0.01 0.01 0.02 0.02 0.03 0.04 0.02 0.01 0.01 0.00 0.00 0.00 0.00 0.00 0.00 0.00 0.00 0.00 0.01 0.01 0.01 0.01 0.01 0.00 0.00 0.00 0.00 0.00 0.00 0.00 0.00 0.00 0.00 0.00 0.00 0.00 0.00 0.00
0.00 0.00 0.00 0.00 0.00 0.00 0.00 0.01 0.01 0.01 0.02 0.03 0.02 0.04 0.07 0.07 0.06 0.02 0.01 0.00 0.01 0.01 0.01 0.00 0.01 0.00 0.00 0.00 0.01 0.01 0.01 0.01 0.01 0.01 0.01 0.01 0.00 0.00 0.00 0.00 0.00 0.00 0.00 0.00 0.00 0.00 0.00 0.00 0.00
0.00 0.00 0.00 0.00 0.00 0.00 0.01 0.00 0.00 0.01 0.04 0.08 0.08 0.12 0.13 0.07 0.04 0.02 0.01 0.00 0.01 0.01 0.01 0.00 0.00 0.00 0.01 0.01 0.01 0.01 0.01 0.01 0.01 0.01 0.01 0.01 0.01 0.01 0.01 0.01 0.01 0.01 0.00 0.00 0.00 0.00 0.00 0.00 0.00
0.00 0.00 0.00 0.00 0.00 0.01 0.01 0.01 0.01 0.01 0.04 0.07 0.10 0.17 0.13 0.07 0.05 0.02 0.02 0.01 0.01 0.01 0.01 0.00 0.00 0.00 0.00 0.01 0.01 0.01 0.01 0.01 0.01 0.01 0.01 0.01 0.02 0.01 0.01 0.01 0.01 0.01 0.01 0.01 0.01 0.01 0.00 0.00 0.01
0.00 0.00 0.00 0.00 0.00 0.01 0.02 0.01 0.01 0.01 0.09 0.10 0.09 0.13 0.09 0.08 0.05 0.03 0.03 0.01 0.01 0.02 0.02 0.01 0.00 0.00 0.00 0.01 0.01 0.01 0.02 0.02 0.02 0.01 0.01 0.02 0.02 0.02 0.02 0.02 0.02 0.01 0.02 0.02 0.01 0.01 0.01 0.01 0.01
0.00 0.00 0.00 0.00 0.00 0.02 0.02 0.01 0.01 0.02 0.06 0.19 0.11 0.06 0.06 0.06 0.06 0.06 0.06 0.03 0.02 0.02 0.02 0.02 0.01 0.01 0.01 0.02 0.02 0.02 0.02 0.02 0.02 0.01 0.02 0.02 0.03 0.04 0.04 0.04 0.04 0.03 0.03 0.02 0.02 0.01 0.02 0.02 0.02
0.00 0.00 0.00 0.00 0.00 0.01 0.02 0.01 0.01 0.02 0.05 0.13 0.08 0.05 0.05 0.06 0.06 0.07 0.08 0.05 0.04 0.04 0.04 0.05 0.05 0.04 0.05 0.05 0.03 0.02 0.03 0.04 0.03 0.02 0.02 0.03 0.05 0.06 0.05 0.06 0.06 0.05 0.04 0.03 0.03 0.03 0.02 0.02 0.03
0.00 0.00 0.00 0.01 0.01 0.01 0.02 0.02 0.02 0.02 0.06 0.07 0.04 0.04 0.04 0.04 0.05 0.06 0.06 0.05 0.05 0.06 0.06 0.14 0.15 0.09 0.11 0.11 0.05 0.03 0.03 0.03 0.03 0.04 0.05 0.05 0.05 0.06 0.07 0.07 0.06 0.05 0.04 0.03 0.03 0.03 0.02 0.04 0.08
0.00 0.00 0.00 0.01 0.02 0.03 0.02 0.03 0.03 0.03 0.06 0.07 0.03 0.02 0.02 0.02 0.03 0.04 0.06 0.06 0.07 0.06 0.07 0.17 0.17 0.15 0.14 0.10 0.07 0.05 0.04 0.04 0.05 0.10 0.08 0.08 0.08 0.09 0.11 0.11 0.09 0.07 0.05 0.05 0.03 0.03 0.04 0.07 0.10
0.00 0.00 0.00 0.01 0.03 0.03 0.02 0.04 0.04 0.02 0.04 0.04 0.02 0.03 0.03 0.03 0.03 0.06 0.10 0.14 0.13 0.06 0.08 0.10 0.10 0.12 0.16 0.09 0.09 0.10 0.07 0.07 0.08 0.11 0.11 0.09 0.09 0.11 0.14 0.18 0.15 0.10 0.10 0.12 0.09 0.07 0.07 0.10 0.09
0.00 0.00 0.00 0.01 0.02 0.03 0.05 0.05 0.03 0.03 0.04 0.05 0.03 0.04 0.05 0.04 0.04 0.06 0.13 0.18 0.08 0.06 0.07 0.09 0.10 0.11 0.08 0.08 0.10 0.13 0.09 0.08 0.09 0.12 0.14 0.11 0.09 0.11 0.15 0.16 0.16 0.13 0.11 0.11 0.11 0.08 0.07 0.08 0.08
0.00 0.01 0.01 0.01 0.02 0.03 0.03 0.05 0.04 0.03 0.03 0.05 0.04 0.05 0.07 0.07 0.07 0.08 0.12 0.17 0.11 0.07 0.05 0.07 0.06 0.07 0.09 0.11 0.13 0.12 0.10 0.09 0.08 0.09 0.12 0.15 0.13 0.11 0.13 0.14 0.14 0.17 0.17 0.11 0.09 0.07 0.07 0.07 0.06
0.00 0.02 0.01 0.01 0.01 0.01 0.01 0.04 0.06 0.05 0.07 0.05 0.06 0.07 0.09 0.12 0.10 0.08 0.07 0.07 0.10 0.08 0.06 0.07 0.07 0.08 0.10 0.10 0.10 0.08 0.08 0.09 0.10 0.10 0.09 0.13 0.12 0.13 0.14 0.14 0.13 0.12 0.14 0.12 0.09 0.07 0.07 0.06 0.05
0.00 0.01 0.01 0.01 0.00 0.00 0.01 0.03 0.05 0.05 0.09 0.10 0.07 0.08 0.06 0.05 0.05 0.04 0.03 0.03 0.04 0.04 0.04 0.05 0.06 0.06 0.06 0.06 0.06 0.06 0.05 0.06 0.08 0.09 0.09 0.09 0.08 0.11 0.17 0.13 0.10 0.09 0.10 0.11 0.10 0.08 0.07 0.06 0.05
0.00 0.00 0.00 0.00 0.00 0.00 0.01 0.04 0.06 0.06 0.07 0.10 0.09 0.08 0.06 0.05 0.04 0.04 0.03 0.03 0.03 0.02 0.02 0.03 0.04 0.04 0.04 0.04 0.03 0.03 0.03 0.04 0.06 0.06 0.06 0.06 0.05 0.06 0.09 0.08 0.08 0.10 0.10 0.09 0.09 0.08 0.06 0.05 0.05
0.00 0.00 0.00 0.00 0.00 0.01 0.01 0.02 0.05 0.08 0.08 0.09 0.08 0.06 0.08 0.07 0.04 0.03 0.03 0.03 0.03 0.02 0.02 0.03 0.03 0.02 0.01 0.02 0.03 0.02 0.02 0.05 0.09 0.09 0.08 0.08 0.06 0.05 0.05 0.05 0.06 0.07 0.08 0.08 0.08 0.07 0.06 0.04 0.04
0.00 0.00 0.00 0.01 0.01 0.01 0.02 0.03 0.03 0.03 0.06 0.09 0.10 0.07 0.06 0.05 0.04 0.03 0.02 0.02 0.04 0.04 0.04 0.03 0.03 0.02 0.01 0.02 0.03 0.02 0.02 0.03 0.07 0.13 0.11 0.08 0.06 0.06 0.06 0.05 0.06 0.06 0.05 0.05 0.06 0.06 0.05 0.03 0.04
0.00 0.01 0.00 0.01 0.01 0.01 0.02 0.04 0.03 0.03 0.05 0.09 0.12 0.10 0.05 0.03 0.04 0.03 0.02 0.02 0.04 0.04 0.02 0.01 0.02 0.02 0.02 0.01 0.01 0.02 0.03 0.03 0.03 0.05 0.07 0.05 0.05 0.04 0.04 0.04 0.03 0.05 0.04 0.04 0.06 0.08 0.06 0.04 0.03
0.00 0.00 0.00 0.00 0.01 0.01 0.01 0.02 0.03 0.04 0.06 0.10 0.13 0.11 0.08 0.08 0.07 0.04 0.03 0.03 0.05 0.04 0.02 0.02 0.02 0.03 0.03 0.02 0.01 0.01 0.02 0.04 0.04 0.04 0.03 0.03 0.03 0.03 0.03 0.04 0.03 0.03 0.04 0.05 0.06 0.05 0.05 0.04 0.04
0.00 0.00 0.00 0.00 0.00 0.01 0.01 0.01 0.03 0.05 0.07 0.10 0.11 0.11 0.12 0.17 0.14 0.07 0.04 0.05 0.10 0.09 0.06 0.03 0.02 0.04 0.03 0.02 0.02 0.03 0.03 0.04 0.05 0.05 0.04 0.03 0.03 0.03 0.02 0.04 0.04 0.03 0.04 0.07 0.06 0.05 0.03 0.03 0.03
0.00 0.00 0.00 0.00 0.00 0.01 0.00 0.01 0.03 0.06 0.09 0.15 0.14 0.13 0.19 0.19 0.15 0.12 0.08 0.06 0.07 0.07 0.05 0.03 0.03 0.03 0.02 0.02 0.02 0.05 0.05 0.06 0.07 0.06 0.04 0.03 0.03 0.04 0.05 0.06 0.04 0.03 0.03 0.05 0.04 0.03 0.02 0.02 0.02
0.00 0.00 0.00 0.00 0.00 0.00 0.00 0.01 0.03 0.05 0.09 0.11 0.11 0.15 0.18 0.15 0.14 0.13 0.10 0.07 0.06 0.05 0.04 0.03 0.02 0.02 0.01 0.01 0.01 0.03 0.04 0.03 0.03 0.06 0.09 0.07 0.05 0.04 0.04 0.03 0.02 0.02 0.02 0.02 0.01 0.02 0.02 0.02 0.02
0.00 0.00 0.00 0.01 0.01 0.01 0.02 0.04 0.06 0.07 0.08 0.08 0.10 0.13 0.12 0.10 0.08 0.08 0.08 0.07 0.06 0.05 0.03 0.02 0.01 0.01 0.01 0.01 0.01 0.01 0.01 0.01 0.02 0.03 0.05 0.04 0.03 0.01 0.01 0.01 0.01 0.01 0.01 0.01 0.01 0.02 0.01 0.01 0.02
0.00 0.00 0.01 0.01 0.01 0.02 0.05 0.06 0.10 0.10 0.11 0.11 0.10 0.09 0.08 0.09 0.10 0.07 0.05 0.04 0.05 0.04 0.02 0.02 0.02 0.01 0.01 0.01 0.01 0.01 0.02 0.02 0.03 0.03 0.02 0.02 0.02 0.01 0.00 0.00 0.00 0.00 0.00 0.00 0.01 0.02 0.02 0.02 0.02
0.00 0.01 0.01 0.02 0.04 0.05 0.06 0.07 0.10 0.12 0.16 0.17 0.14 0.11 0.10 0.13 0.16 0.11 0.06 0.05 0.05 0.03 0.02 0.03 0.02 0.01 0.01 0.01 0.02 0.02 0.03 0.03 0.03 0.01 0.00 0.00 0.00 0.00 0.00 0.00 0.00 0.00 0.00 0.00 0.01 0.02 0.02 0.03 0.02
0.00 0.01 0.01 0.02 0.04 0.07 0.08 0.07 0.08 0.13 0.18 0.18 0.14 0.10 0.10 0.13 0.14 0.14 0.11 0.08 0.06 0.04 0.03 0.03 0.02 0.03 0.03 0.03 0.02 0.03 0.02 0.02 0.01 0.01 0.00 0.00 0.00 0.00 0.00 0.00 0.00 0.00 0.00 0.01 0.01 0.01 0.01 0.02 0.02
0.01 0.01 0.02 0.02 0.03 0.05 0.05 0.05 0.04 0.08 0.13 0.12 0.10 0.08 0.08 0.09 0.08 0.06 0.06 0.06 0.05 0.04 0.03 0.02 0.02 0.02 0.03 0.03 0.02 0.02 0.02 0.01 0.01 0.01 0.00 0.00 0.00 0.00 0.00 0.00 0.00 0.00 0.00 0.01 0.01 0.01 0.01 0.02 0.02
MSLP
1011.90 1012.88 1014.07 1015.22 1016.11 1016.57 1016.54 1016.06 1015.29 1014.44 1013.73 1013.32 1013.30 1013.63 1014.18 1014.80 1015.32 1015.59 1015.59 1015.37 1015.03 1014.72 1014.55 1014.60 1014.89 1015.35 1015.87 1016.34 1016.68 1016.85 1016.88 1016.83 1016.78 1016.81 1016.96 1017.21 1017.53 1017.85 1018.12 1018.28 1018.33 1018.32 1018.27 1018.25 1018.28 1018.39 1018.54 1018.71 1018.84
1012.46 1013.61 1014.85 1015.94 1016.67 1016.90 1016.61 1015.89 1014.91 1013.91 1013.12 1012.67 1012.64 1012.96 1013.50 1014.11 1014.60 1014.88 1014.92 1014.76 1014.53 1014.35 1014.34 1014.55 1014.97 1015.52 1016.11 1016.61 1016.97 1017.15 1017.20 1017.17 1017.15 1017.20 1017.37 1017.62 1017.92 1018.20 1018.42 1018.52 1018.53 1018.48 1018.42 1018.40 1018.45 1018.57 1018.73 1018.90 1019.02
1013.16 1014.41 1015.64 1016.60 1017.12 1017.09 1016.55 1015.61 1014.48 1013.40 1012.57 1012.13 1012.11 1012.44 1012.99 1013.57 1014.05 1014.31 1014.36 1014.27 1014.13 1014.08 1014.20 1014.53 1015.06 1015.69 1016.32 1016.85 1017.21 1017.39 1017.44 1017.43 1017.42 1017.49 1017.66 1017.90 1018.17 1018.41 1018.57 1018.64 1018.62 1018.55 1018.50 1018.50 1018.58 1018.73 1018.91 1019.07 1019.19
1013.94 1015.20 1016.33 1017.11 1017.38 1017.11 1016.35 1015.25 1014.04 1012.94 1012.15 1011.77 1011.81 1012.17 1012.72 1013.28 1013.72 1013.97 1014.03 1013.98 1013.92 1013.96 1014.19 1014.62 1015.22 1015.89 1016.52 1017.04 1017.38 1017.55 1017.59 1017.58 1017.59 1017.66 1017.82 1018.04 1018.28 1018.48 1018.60 1018.64 1018.61 1018.56 1018.54 1018.59 1018.71 1018.89 1019.08 1019.25 1019.35
1014.68 1015.87 1016.83 1017.38 1017.41 1016.92 1016.00 1014.82 1013.60 1012.57 1011.89 1011.61 1011.73 1012.14 1012.70 1013.24 1013.66 1013.89 1013.95 1013.94 1013.94 1014.06 1014.36 1014.84 1015.46 1016.12 1016.72 1017.19 1017.48 1017.62 1017.64 1017.63 1017.64 1017.72 1017.88 1018.09 1018.30 1018.47 1018.56 1018.59 1018.57 1018.54 1018.57 1018.66 1018.83 1019.04 1019.26 1019.43 1019.52
1015.26 1016.30 1017.03 1017.33 1017.13 1016.48 1015.47 1014.31 1013.18 1012.29 1011.76 1011.63 1011.86 1012.32 1012.89 1013.42 1013.81 1014.02 1014.10 1014.12 1014.17 1014.35 1014.69 1015.18 1015.78 1016.38 1016.91 1017.30 1017.53 1017.62 1017.62 1017.60 1017.63 1017.72 1017.89 1018.09 1018.28 1018.43 1018.51 1018.53 1018.52 1018.53 1018.59 1018.73 1018.94 1019.18 1019.42 1019.59 1019.66
1015.59 1016.40 1016.88 1016.94 1016.56 1015.80 1014.80 1013.72 1012.77 1012.08 1011.75 1011.79 1012.12 1012.65 1013.22 1013.73 1014.09 1014.30 1014.40 1014.45 1014.56 1014.78 1015.13 1015.61 1016.14 1016.66 1017.08 1017.37 1017.52 1017.56 1017.55 1017.55 1017.60 1017.72 1017.91 1018.12 1018.31 1018.44 1018.51 1018.52 1018.51 1018.54 1018.62 1018.79 1019.02 1019.28 1019.52 1019.68 1019.74
1015.62 1016.18 1016.41 1016.25 1015.74 1014.96 1014.03 1013.13 1012.40 1011.95 1011.84 1012.04 1012.48 1013.04 1013.61 1014.09 1014.43 1014.64 1014.76 1014.86 1015.02 1015.27 1015.63 1016.06 1016.52 1016.92 1017.23 1017.41 1017.49 1017.49 1017.48 1017.50 1017.60 1017.77 1018.00 1018.23 1018.42 1018.53 1018.58 1018.57 1018.54 1018.56 1018.64 1018.81 1019.05 1019.31 1019.54 1019.69 1019.73
1015.38 1015.69 1015.68 1015.37 1014.79 1014.05 1013.28 1012.60 1012.12 1011.92 1012.02 1012.36 1012.87 1013.45 1013.99 1014.44 1014.76 1014.98 1015.13 1015.28 1015.48 1015.76 1016.11 1016.50 1016.86 1017.16 1017.35 1017.43 1017.44 1017.42 1017.42 1017.49 1017.66 1017.89 1018.16 1018.42 1018.61 1018.71 1018.71 1018.66 1018.60 1018.58 1018.64 1018.78 1019.00 1019.24 1019.46 1019.60 1019.63
1014.97 1015.05 1014.86 1014.44 1013.86 1013.23 1012.64 1012.21 1012.00 1012.04 1012.32 1012.77 1013.31 1013.87 1014.37 1014.77 1015.06 1015.28 1015.47 1015.67 1015.92 1016.23 1016.56 1016.89 1017.16 1017.35 1017.43 1017.43 1017.39 1017.36 1017.40 1017.53 1017.77 1018.08 1018.40 1018.67 1018.85 1018.92 1018.88 1018.77 1018.65 1018.57 1018.58 1018.69 1018.87 1019.09 1019.29 1019.41 1019.44
1014.52 1014.42 1014.09 1013.63 1013.10 1012.61 1012.24 1012.05 1012.09 1012.33 1012.75 1013.26 1013.80 1014.31 1014.74 1015.08 1015.34 1015.57 1015.79 1016.04 1016.33 1016.65 1016.96 1017.23 1017.42 1017.50 1017.49 1017.42 1017.35 1017.33 1017.41 1017.61 1017.92 1018.28 1018.64 1018.93 1019.10 1019.13 1019.03 1018.86 1018.67 1018.53 1018.48 1018.53 1018.68 1018.87 1019.05 1019.17 1019.20
1014.16 1013.92 1013.52 1013.05 1012.61 1012.28 1012.13 1012.17 1012.40 1012.80 1013.30 1013.83 1014.34 1014.78 1015.13 1015.40 1015.64 1015.86 1016.11 1016.39 1016.71 1017.04 1017.32 1017.54 1017.64 1017.64 1017.55 1017.43 1017.34 1017.33 1017.45 1017.70 1018.07 1018.48 1018.86 1019.15 1019.30 1019.28 1019.13 1018.89 1018.64 1018.43 1018.32 1018.33 1018.44 1018.61 1018.79 1018.91 1018.95
1013.99 1013.66 1013.22 1012.79 1012.45 1012.27 1012.30 1012.52 1012.92 1013.42 1013.96 1014.47 1014.92 1015.27 1015.55 1015.77 1015.97 1016.19 1016.46 1016.77 1017.10 1017.41 1017.67 1017.82 1017.85 1017.77 1017.62 1017.46 1017.36 1017.36 1017.51 1017.81 1018.20 1018.63 1019.02 1019.29 1019.40 1019.35 1019.15 1018.86 1018.55 1018.30 1018.16 1018.13 1018.22 1018.37 1018.55 1018.68 1018.73
1014.04 1013.65 1013.20 1012.81 1012.57 1012.52 1012.69 1013.05 1013.54 1014.09 1014.64 1015.12 1015.50 1015.78 1016.00 1016.18 1016.36 1016.59 1016.87 1017.18 1017.51 1017.79 1018.00 1018.09 1018.05 1017.92 1017.72 1017.54 1017.43 1017.44 1017.61 1017.91 1018.31 1018.73 1019.09 1019.34 1019.42 1019.32 1019.09 1018.77 1018.44 1018.17 1018.00 1017.96 1018.03 1018.18 1018.36 1018.50 1018.57
1014.23 1013.80 1013.36 1013.01 1012.85 1012.91 1013.18 1013.62 1014.16 1014.73 1015.25 1015.69 1016.03 1016.27 1016.45 1016.62 1016.81 1017.04 1017.33 1017.64 1017.94 1018.19 1018.34 1018.36 1018.27 1018.09 1017.87 1017.67 1017.56 1017.58 1017.74 1018.04 1018.41 1018.80 1019.12 1019.32 1019.36 1019.24 1019.00 1018.67 1018.35 1018.07 1017.91 1017.86 1017.93 1018.08 1018.25 1018.40 1018.48
1014.45 1014.00 1013.57 1013.27 1013.17 1013.30 1013.63 1014.12 1014.67 1015.23 1015.74 1016.15 1016.46 1016.70 1016.89 1017.08 1017.29 1017.55 1017.84 1018.13 1018.40 1018.59 1018.68 1018.64 1018.50 1018.29 1018.06 1017.87 1017.76 1017.79 1017.94 1018.21 1018.54 1018.86 1019.13 1019.28 1019.29 1019.16 1018.91 1018.60 1018.30 1018.05 1017.89 1017.85 1017.92 1018.05 1018.22 1018.36 1018.44
1014.57 1014.11 1013.71 1013.46 1013.43 1013.61 1013.98 1014.47 1015.03 1015.57 1016.05 1016.46 1016.78 1017.05 1017.29 1017.53 1017.80 1018.08 1018.38 1018.65 1018.87 1019.00 1019.02 1018.93 1018.75 1018.53 1018.30 1018.13 1018.04 1018.07 1018.21 1018.44 1018.72 1018.98 1019.17 1019.27 1019.25 1019.11 1018.88 1018.60 1018.33 1018.11 1017.98 1017.94 1017.99 1018.11 1018.25 1018.37 1018.45
1014.49 1014.05 1013.70 1013.53 1013.56 1013.79 1014.19 1014.69 1015.23 1015.76 1016.23 1016.64 1017.01 1017.34 1017.65 1017.98 1018.31 1018.64 1018.95 1019.19 1019.36 1019.42 1019.37 1019.23 1019.03 1018.80 1018.60 1018.45 1018.40 1018.44 1018.57 1018.76 1018.97 1019.16 1019.29 1019.33 1019.28 1019.14 1018.93 1018.69 1018.46 1018.27 1018.15 1018.11 1018.14 1018.22 1018.33 1018.42 1018.47
1014.18 1013.80 1013.56 1013.48 1013.61 1013.91 1014.34 1014.84 1015.36 1015.87 1016.34 1016.77 1017.19 1017.60 1018.01 1018.43 1018.85 1019.22 1019.54 1019.76 1019.86 1019.85 1019.74 1019.55 1019.33 1019.11 1018.94 1018.84 1018.82 1018.89 1019.01 1019.16 1019.31 1019.43 1019.49 1019.48 1019.40 1019.26 1019.07 1018.87 1018.67 1018.51 1018.40 1018.34 1018.33 1018.37 1018.43 1018.48 1018.51
1013.70 1013.45 1013.35 1013.43 1013.68 1014.07 1014.54 1015.04 1015.54 1016.01 1016.47 1016.92 1017.39 1017.88 1018.39 1018.91 1019.40 1019.83 1020.15 1020.34 1020.39 1020.32 1020.15 1019.92 1019.68 1019.48 1019.34 1019.28 1019.30 1019.39 1019.50 1019.62 1019.72 1019.78 1019.77 1019.72 1019.61 1019.46 1019.28 1019.11 1018.94 1018.79 1018.68 1018.60 1018.56 1018.54 1018.54 1018.55 1018.55
1013.19 1013.13 1013.24 1013.52 1013.93 1014.41 1014.92 1015.42 1015.88 1016.31 1016.73 1017.18 1017.67 1018.22 1018.81 1019.41 1019.98 1020.45 1020.78 1020.95 1020.95 1020.82 1020.59 1020.33 1020.08 1019.88 1019.78 1019.76 1019.81 1019.92 1020.03 1020.12 1020.17 1020.16 1020.10 1020.00 1019.86 1019.70 1019.54 1019.38 1019.23 1019.09 1018.97 1018.86 1018.77 1018.71 1018.65 1018.62 1018.59
1012.85 1013.03 1013.39 1013.89 1014.47 1015.06 1015.60 1016.07 1016.47 1016.81 1017.17 1017.57 1018.05 1018.63 1019.27 1019.93 1020.55 1021.06 1021.40 1021.56 1021.53 1021.35 1021.08 1020.79 1020.52 1020.34 1020.25 1020.26 1020.34 1020.44 1020.55 1020.61 1020.61 1020.56 1020.44 1020.30 1020.13 1019.96 1019.80 1019.65 1019.51 1019.37 1019.24 1019.10 1018.97 1018.86 1018.76 1018.68 1018.63
1012.84 1013.29 1013.91 1014.63 1015.37 1016.04 1016.59 1017.00 1017.29 1017.52 1017.76 1018.08 1018.51 1019.07 1019.72 1020.42 1021.08 1021.62 1021.98 1022.14 1022.10 1021.89 1021.60 1021.28 1021.00 1020.82 1020.74 1020.76 1020.84 1020.95 1021.03 1021.06 1021.02 1020.92 1020.76 1020.57 1020.38 1020.20 1020.04 1019.89 1019.76 1019.62 1019.47 1019.31 1019.15 1018.99 1018.85 1018.74 1018.66
1013.23 1013.94 1014.80 1015.72 1016.58 1017.29 1017.81 1018.12 1018.28 1018.35 1018.44 1018.63 1018.97 1019.48 1020.12 1020.83 1021.52 1022.09 1022.48 1022.65 1022.61 1022.40 1022.10 1021.77 1021.49 1021.30 1021.22 1021.23 1021.31 1021.40 1021.46 1021.46 1021.38 1021.24 1021.04 1020.82 1020.61 1020.41 1020.25 1020.10 1019.96 1019.82 1019.66 1019.48 1019.29 1019.10 1018.92 1018.78 1018.68
1014.00 1014.93 1015.99 1017.04 1017.97 1018.67 1019.11 1019.30 1019.29 1019.18 1019.10 1019.14 1019.37 1019.81 1020.41 1021.12 1021.82 1022.42 1022.84 1023.04 1023.03 1022.84 1022.55 1022.22 1021.94 1021.75 1021.66 1021.67 1021.72 1021.79 1021.82 1021.79 1021.68 1021.51 1021.28 1021.04 1020.81 1020.61 1020.44 1020.29 1020.15 1020.00 1019.83 1019.63 1019.42 1019.20 1018.98 1018.80 1018.66
1015.01 1016.09 1017.27 1018.38 1019.31 1019.96 1020.29 1020.33 1020.15 1019.87 1019.62 1019.52 1019.64 1020.00 1020.56 1021.25 1021.96 1022.58 1023.04 1023.28 1023.31 1023.17 1022.90 1022.60 1022.34 1022.15 1022.05 1022.04 1022.08 1022.12 1022.13 1022.07 1021.94 1021.75 1021.51 1021.26 1021.02 1020.81 1020.63 1020.47 1020.33 1020.17 1019.98 1019.77 1019.53 1019.28 1019.03 1018.80 1018.62
1016.04 1017.20 1018.41 1019.52 1020.39 1020.95 1021.16 1021.05 1020.72 1020.30 1019.93 1019.72 1019.75 1020.04 1020.56 1021.23 1021.95 1022.59 1023.09 1023.38 1023.46 1023.36 1023.14 1022.88 1022.64 1022.46 1022.36 1022.34 1022.36 1022.39 1022.38 1022.31 1022.17 1021.97 1021.73 1021.48 1021.24 1021.03 1020.85 1020.69 1020.53 1020.36 1020.15 1019.92 1019.65 1019.36 1019.07 1018.80 1018.56
1016.87 1018.03 1019.20 1020.24 1021.02 1021.46 1021.56 1021.35 1020.93 1020.43 1019.99 1019.73 1019.72 1019.97 1020.47 1021.12 1021.83 1022.49 1023.01 1023.33 1023.46 1023.42 1023.25 1023.04 1022.83 1022.68 1022.59 1022.57 1022.59 1022.61 1022.60 1022.53 1022.39 1022.20 1021.97 1021.73 1021.50 1021.29 1021.11 1020.94 1020.77 1020.57 1020.35 1020.08 1019.78 1019.46 1019.12 1018.80 1018.50
1017.31 1018.40 1019.48 1020.40 1021.07 1021.42 1021.44 1021.19 1020.75 1020.25 1019.83 1019.59 1019.59 1019.85 1020.34 1020.98 1021.67 1022.32 1022.84 1023.19 1023.35 1023.35 1023.24 1023.07 1022.91 1022.79 1022.74 1022.73 1022.76 1022.79 1022.78 1022.72 1022.61 1022.44 1022.23 1022.01 1021.80 1021.59 1021.41 1021.23 1021.04 1020.83 1020.57 1020.28 1019.94 1019.57 1019.20 1018.82 1018.46
1017.31 1018.29 1019.23 1020.02 1020.59 1020.87 1020.87 1020.65 1020.28 1019.87 1019.55 1019.39 1019.46 1019.76 1020.25 1020.87 1021.53 1022.15 1022.64 1022.98 1023.15 1023.18 1023.12 1023.00 1022.89 1022.82 1022.80 1022.82 1022.87 1022.92 1022.93 1022.90 1022.81 1022.67 1022.49 1022.29 1022.10 1021.91 1021.72 1021.53 1021.33 1021.09 1020.81 1020.49 1020.12 1019.72 1019.29 1018.88 1018.47
Thickness
5812 5814 5814 5803 5778 5756 5756 5779 5801 5806 5807 5815 5819 5811 5800 5790 5781 5769 5789 5797 5794 5790 5786 5784 5782 5780 5778 5775 5773 5771 5770 5768 5767 5765 5764 5763 5761 5760 5758 5757 5755 5753 5752 5751 5749 5748 5747 5745 5744
5810 5812 5803 5785 5758 5741 5754 5786 5798 5806 5810 5818 5815 5809 5799 5789 5794 5789 5790 5792 5791 5788 5785 5782 5780 5777 5775 5772 5770 5768 5766 5765 5763 5761 5760 5759 5758 5756 5755 5753 5752 5750 5749 5748 5747 5745 5744 5743 5742
5808 5807 5787 5768 5754 5746 5765 5792 5803 5810 5818 5818 5806 5803 5795 5788 5793 5790 5791 5790 5788 5785 5782 5779 5776 5774 5771 5769 5767 5765 5763 5761 5759 5758 5756 5755 5754 5752 5751 5750 5749 5747 5746 5745 5744 5743 5741 5740 5740
5799 5789 5777 5759 5755 5767 5782 5796 5806 5805 5807 5810 5804 5790 5790 5797 5797 5793 5791 5788 5784 5781 5778 5776 5773 5770 5768 5765 5763 5761 5760 5758 5756 5754 5753 5751 5750 5749 5748 5746 5745 5744 5743 5742 5741 5740 5739 5738 5737
5790 5773 5759 5748 5758 5779 5795 5806 5810 5803 5798 5797 5798 5780 5778 5792 5797 5792 5787 5784 5780 5776 5774 5772 5769 5767 5764 5762 5760 5758 5756 5754 5752 5750 5749 5747 5746 5745 5744 5743 5742 5741 5740 5739 5738 5737 5736 5735 5735
5770 5760 5743 5739 5758 5781 5796 5807 5805 5797 5791 5793 5790 5778 5772 5787 5788 5785 5783 5779 5777 5773 5770 5767 5765 5763 5760 5758 5756 5754 5752 5750 5748 5746 5745 5743 5742 5742 5741 5740 5739 5738 5737 5736 5735 5735 5734 5733 5732
5760 5750 5744 5751 5759 5771 5792 5806 5802 5793 5788 5789 5792 5774 5770 5778 5782 5782 5778 5774 5771 5768 5765 5763 5761 5758 5756 5753 5752 5749 5747 5746 5744 5742 5741 5739 5738 5738 5737 5736 5735 5734 5733 5733 5732 5731 5731 5730 5729
5768 5752 5749 5751 5759 5767 5791 5798 5797 5793 5786 5794 5794 5774 5765 5773 5779 5776 5771 5768 5765 5762 5760 5758 5756 5754 5751 5749 5746 5745 5743 5741 5740 5738 5736 5735 5734 5734 5733 5732 5732 5731 5730 5730 5729 5728 5728 5727 5726
5773 5744 5736 5751 5761 5768 5786 5788 5789 5794 5789 5787 5789 5785 5780 5779 5777 5769 5762 5758 5756 5755 5754 5753 5751 5749 5746 5744 5742 5740 5738 5737 5735 5733 5732 5731 5730 5730 5729 5728 5728 5727 5727 5726 5726 5725 5725 5724 5723
5758 5736 5747 5769 5776 5774 5780 5784 5785 5781 5776 5774 5776 5778 5778 5775 5770 5762 5756 5751 5749 5748 5748 5748 5746 5744 5742 5740 5737 5735 5734 5732 5730 5729 5728 5726 5726 5725 5725 5724 5723 5723 5723 5723 5722 5722 5721 5721 5721
5757 5749 5763 5776 5782 5781 5778 5780 5786 5776 5764 5769 5769 5768 5768 5766 5762 5757 5752 5748 5746 5745 5744 5743 5742 5739 5737 5735 5733 5731 5729 5727 5725 5724 5723 5721 5720 5720 5720 5719 5718 5718 5718 5718 5718 5717 5717 5717 5718
5757 5763 5770 5775 5782 5779 5777 5776 5771 5772 5769 5774 5773 5770 5764 5758 5754 5750 5745 5742 5741 5739 5738 5738 5737 5734 5732 5731 5729 5726 5724 5722 5720 5719 5718 5717 5715 5715 5714 5713 5713 5713 5713 5713 5713 5713 5713 5713 5714
5753 5760 5771 5774 5775 5775 5775 5769 5766 5762 5769 5770 5768 5763 5757 5752 5748 5746 5743 5739 5737 5735 5733 5732 5732 5731 5728 5726 5723 5721 5720 5718 5716 5714 5712 5711 5710 5709 5708 5708 5708 5707 5708 5708 5708 5708 5709 5709 5709
5756 5761 5765 5769 5772 5772 5765 5759 5759 5752 5762 5760 5756 5752 5750 5746 5743 5739 5736 5732 5729 5729 5727 5727 5727 5725 5723 5721 5718 5715 5714 5712 5710 5708 5706 5705 5704 5704 5703 5702 5702 5702 5703 5703 5704 5703 5703 5703 5703
5760 5754 5756 5763 5767 5764 5763 5744 5745 5751 5753 5749 5746 5744 5742 5739 5738 5734 5731 5726 5725 5723 5723 5723 5721 5719 5717 5714 5711 5709 5707 5705 5704 5702 5700 5699 5698 5698 5698 5696 5696 5697 5697 5698 5698 5699 5698 5698 5698
5750 5742 5734 5753 5764 5765 5752 5725 5737 5746 5744 5739 5738 5737 5733 5731 5731 5730 5728 5724 5721 5720 5718 5717 5716 5712 5710 5708 5706 5703 5701 5699 5697 5695 5694 5693 5692 5692 5691 5690 5690 5691 5692 5692 5692 5692 5691 5691 5691
5728 5722 5727 5741 5760 5759 5746 5727 5735 5740 5738 5733 5732 5730 5726 5724 5723 5723 5723 5720 5717 5715 5713 5710 5708 5705 5704 5702 5699 5696 5694 5691 5689 5688 5686 5686 5685 5685 5685 5685 5685 5685 5685 5685 5686 5685 5684 5683 5684
5714 5722 5728 5731 5750 5750 5738 5730 5733 5736 5734 5729 5728 5725 5723 5720 5718 5718 5717 5715 5713 5710 5707 5703 5701 5699 5697 5695 5691 5688 5686 5683 5681 5679 5678 5678 5677 5678 5678 5678 5678 5678 5677 5677 5678 5678 5678 5677 5677
5727 5726 5725 5735 5751 5743 5733 5728 5729 5732 5729 5725 5722 5720 5718 5716 5714 5713 5712 5710 5706 5703 5700 5697 5693 5691 5690 5687 5683 5679 5675 5673 5672 5671 5670 5670 5669 5670 5670 5670 5670 5670 5669 5670 5671 5670 5669 5669 5670
5728 5721 5723 5735 5749 5741 5725 5722 5727 5729 5728 5726 5721 5718 5715 5710 5707 5705 5704 5702 5699 5696 5692 5690 5687 5685 5683 5680 5677 5673 5669 5665 5664 5662 5661 5661 5660 5661 5661 5660 5661 5662 5662 5662 5663 5662 5661 5662 5663
5725 5722 5726 5729 5737 5736 5724 5710 5714 5720 5721 5720 5718 5716 5713 5708 5702 5699 5696 5694 5691 5688 5685 5682 5679 5677 5675 5673 5670 5666 5662 5657 5654 5653 5652 5651 5652 5652 5652 5652 5652 5653 5653 5653 5654 5654 5654 5653 5655
5718 5738 5739 5736 5721 5707 5716 5689 5703 5709 5709 5710 5710 5708 5706 5703 5697 5693 5690 5686 5683 5680 5678 5674 5672 5669 5667 5665 5662 5657 5652 5647 5644 5643 5642 5642 5643 5643 5643 5644 5644 5644 5645 5645 5646 5646 5646 5646 5645
5734 5746 5740 5734 5719 5704 5706 5690 5693 5703 5699 5702 5704 5704 5701 5697 5691 5686 5683 5680 5676 5673 5670 5667 5664 5660 5658 5656 5653 5648 5644 5640 5637 5636 5635 5634 5634 5634 5634 5634 5635 5635 5636 5636 5637 5638 5638 5639 5639
5748 5738 5728 5715 5702 5685 5697 5690 5685 5693 5701 5700 5700 5699 5696 5692 5685 5678 5674 5671 5667 5665 5662 5659 5656 5652 5649 5646 5643 5639 5636 5632 5629 5627 5626 5625 5624 5624 5625 5625 5626 5626 5627 5627 5628 5629 5630 5631 5632
5734 5706 5683 5680 5670 5674 5696 5688 5685 5701 5708 5706 5701 5696 5691 5687 5680 5673 5667 5663 5660 5657 5654 5650 5647 5643 5640 5637 5633 5630 5627 5624 5621 5619 5617 5616 5614 5614 5615 5616 5617 5617 5618 5619 5620 5621 5622 5623 5624
5723 5707 5678 5667 5665 5672 5687 5680 5687 5702 5706 5704 5699 5692 5685 5678 5673 5667 5662 5657 5653 5649 5646 5643 5639 5635 5632 5628 5624 5621 5618 5615 5612 5610 5609 5608 5607 5607 5607 5608 5609 5609 5611 5612 5612 5613 5614 5615 5616
5717 5706 5703 5681 5675 5666 5671 5680 5688 5696 5693 5691 5687 5683 5677 5671 5666 5660 5655 5650 5646 5642 5638 5635 5631 5627 5623 5619 5615 5612 5610 5607 5605 5603 5601 5600 5599 5599 5600 5600 5600 5601 5602 5603 5604 5605 5606 5607 5608
5726 5714 5690 5675 5660 5654 5665 5670 5673 5682 5682 5680 5676 5672 5667 5662 5658 5655 5649 5644 5640 5636 5631 5627 5623 5619 5614 5610 5607 5604 5601 5599 5597 5595 5593 5593 5592 5592 5591 5591 5592 5592 5593 5595 5596 5597 5598 5599 5600
5713 5704 5689 5674 5669 5654 5648 5663 5691 5687 5684 5678 5671 5667 5661 5656 5652 5647 5642 5637 5632 5627 5623 5619 5615 5610 5605 5602 5598 5595 5593 5591 5590 5588 5586 5585 5584 5583 5583 5583 5583 5583 5584 5586 5587 5589 5590 5592 5593
5716 5705 5690 5673 5667 5662 5654 5662 5691 5686 5681 5674 5666 5662 5655 5650 5646 5640 5635 5630 5624 5620 5615 5611 5607 5602 5598 5595 5591 5588 5585 5583 5582 5580 5579 5578 5576 5575 5575 5574 5574 5575 5576 5577 5579 5580 5582 5583 5585